www.pogodaiklimat.ru
Время
(UTC), дата
18 18.05
21 18.05
00 19.05
03 19.05
06 19.05
09 19.05
12 19.05
15 19.05
18 19.05
21 19.05
00 20.05
03 20.05
06 20.05
09 20.05
12 20.05
15 20.05
18 20.05
21 20.05
00 21.05
03 21.05
06 21.05
09 21.05
12 21.05
15 21.05
18 21.05
21 21.05
00 22.05
03 22.05
06 22.05
09 22.05
12 22.05
15 22.05
18 22.05
21 22.05
00 23.05
03 23.05
06 23.05
09 23.05
12 23.05
15 23.05
18 23.05
21 23.05
00 24.05
03 24.05
06 24.05
09 24.05
12 24.05
15 24.05
18 24.05
21 24.05
00 25.05
03 25.05
06 25.05
09 25.05
12 25.05
15 25.05
Ветер
(напр.,м/с)
Видим. Явления Облачность Т
(С)
Тd
(С)
f
(%)
Тe
(С)
Тes
(С)
Комфортность P
(гПа)
Po
(гПа)
Тmin
(С)
Tmax
(С)
R
(мм)
R24
(мм)
S
(см)
С 4 10 км слаб. дождь 10/0
[As op]
+6.5 +6.3 99 +3 +3 по сезону 1011.0 988.1
С 5 500 м туман {дождь} ?/? +6.7 +6.7 100 +2 +2 по сезону 1010.1 987.2 +5.9 1
С 5 50 км {дождь, туман} 10/10 600 м
[Sc]
+8.7 +6.8 88 +5 +5 по сезону 1009.1 986.5
С 7-10
{10}
50 км 10/3 600 м
[Sc Ac As]
+8.9 +5.1 77 +5 +6 по сезону 1008.9 986.3
С 6
{10}
50 км 10/3 600 м
[Sc Ac As]
+12.4 +3.2 53 +10 +11 тепло 1007.3 984.9
С 5 50 км 10/3 600 м
[Sc Ac As]
+14.0 +3.3 48 +12 +13 тепло 1006.7 984.5 +14.0
ЮЗ 3 50 км 8/6 600 м
[Sc Ac lent]
+7.0 +3.2 77 +4 +4 по сезону 1009.3 986.5
ЮЗ 3 50 км ясно +5.8 +2.8 81 +3 +3 по сезону 1010.3 987.4
С 2 50 км ясно +5.7 +3.6 86 +3 +3 по сезону 1010.6 987.6
С 6 50 км 6/0
[Ci]
+4.3 +2.6 89 -1 -1 по сезону 1011.7 988.6 +4.3
С 5 50 км 3/0
[Cs]
+8.4 -0.1 55 +5 +11 прохладно 1012.4 989.6
С 3 50 км 3/0
[Cs]
+14.3 -1.0 35 +14 +29 опасность
простуды
1012.0 989.7
Ю 8-10
{10}
50 км 4/0
[Ac lent]
+11.7 +0.7 47 +9 +10 по сезону 1012.6 990.0
ЮЗ 5
{12}
50 км 3/0
[Ac lent]
+9.8 +3.9 67 +7 +8 прохладно 1013.2 990.5 +14.3
ЮЗ 6 50 км 3/0
[Ac lent]
+5.5 +3.3 86 +1 +1 холодно 1015.7 992.6
ЮЗ 6
{11}
50 км 4/4 600 м
[Sc]
+4.8 +2.8 87 -0 -0 холодно 1016.8 993.6
ЮЗ 3 50 км 3/3 600 м
[Sc]
+4.7 +2.5 86 +1 +1 холодно 1016.7 993.5
Ю 2 50 км 6/1 600 м
[Sc Ac lent]
+5.4 +3.0 85 +3 +3 прохладно 1016.9 993.8 +4.5
Ю 4 50 км 9/3 600 м
[Sc Ac lent Cc]
+8.8 +4.1 72 +6 +9 по сезону 1017.5 994.6
Ю 7 50 км 8/4 600 м
[Cu hum Ac cast Cc]
+11.2 +4.2 62 +8 +10 по сезону 1017.5 994.8
Ю 8-12
{12}
50 км 8/3 600 м
[Sc Ac cast Cc]
+9.9 +4.3 68 +6 +7 холодно 1017.0 994.2
Ю 6
{12}
50 км 8/3 600 м
[Sc Ac lent Cc]
+8.5 +4.2 74 +5 +5 прохладно 1017.0 994.1 +11.7
Ю 5
{10}
50 км 4/0
[Ac lent]
+5.3 +4.0 91 +1 +1 холодно 1018.7 995.6
Ю 4 50 км 4/4 600 м
[Sc]
+5.1 +4.2 94 +1 +1 холодно 1019.2 996.0
Ю 4 50 км 10/10 200 м
[St]
+4.8 +4.5 98 0 0 холодно 1017.8 994.6
Ю 3 20 км 9/9 300 м
[St]
+5.6 +5.5 99 +2 +2 прохладно 1018.1 995.0 +4.6
Ю 5 500 м туман ?/? +6.2 +6.2 100 +2 +2 холодно 1018.6 995.5
Ю 6 50 км {туман} 8/5 600 м
[Sc Ci]
+9.8 +5.4 74 +6 +10 прохладно 1017.6 994.9
Ю 7
{13}
50 км {туман} 6/4 600 м
[Sc Ac lent]
+10.1 +5.5 73 +7 +8 прохладно 1016.6 993.8
Ю 6
{11}
50 км 8/4 600 м
[Sc Ac lent]
+6.8 +5.2 90 +2 +2 холодно 1016.6 993.6 +10.4
Ю 5 10 км слаб. морось 10/10 300 м
[St]
+5.8 +5.5 98 +1 +1 холодно 1017.0 994.0
Ю 5 500 м туман ?/? +5.6 +5.6 100 +1 +1 холодно 1016.4 993.4
Ю 6 200 м туман ?/? +5.7 +5.7 100 +1 +1 холодно 1015.2 992.2
ЮВ 7 200 м туман ?/? +5.8 +5.8 100 0 0 холодно 1014.5 991.5 +5.4 0.6
Ю 6 50 м слаб. морось {туман} туман ?/? +6.5 +6.5 100 +2 +2 холодно 1014.3 991.3
Ю 7
{11}
50 м слаб. морось {туман} туман ?/? +7.1 +7.1 100 +2 +2 очень
холодно
1013.9 991.0
ЮВ 6
{10}
<100 м туман {дождь} ?/? +7.3 +7.3 100 +3 +3 очень
холодно
1012.6 989.7
Ю 7 50 м слаб. морось {туман} туман ?/? +7.5 +7.5 100 +3 +3 холодно 1011.5 988.7 +7.5 2
ЮВ 9-12
{13}
50 м слаб. морось {туман} туман ?/? +7.4 +7.4 100 +2 +2 холодно 1011.5 988.7
ЮВ 9-11
{13}
50 м слаб. морось {туман} туман ?/? +7.8 +7.8 100 +2 +2 холодно 1011.0 988.3
ЮВ 11-15
{16}
200 м слаб. дождь {морось} туман ?/? +8.1 +8.1 100 +2 +2 прохладно 1009.3 986.6
ЮВ 11-14
{16}
200 м дождь {туман} туман ?/? +8.0 +8.0 100 +2 +2 холодно 1008.1 985.4 +7.3 14
ЮВ 10-15
{16}
50 м слаб. морось {дождь} туман ?/? +8.4 +8.4 100 +3 +3 холодно 1007.4 984.7
ЮВ 9-12
{15}
200 м слаб. дождь {морось} туман ?/? +9.1 +9.1 100 +4 +4 холодно 1006.6 984.0
ЮВ 6
{12}
10 км слаб. дождь {морось} 10/0 200 м
[As op]
+9.8 +9.6 99 +6 +7 холодно 1005.3 982.8
ЮВ 2 500 м туман {дождь} ?/? +10.0 +10.0 100 +8 +8 по сезону 1005.2 982.7 +10.0 10
З 1 200 м туман {дождь} ?/? +9.3 +9.3 100 +8 +8 по сезону 1005.9 983.4
ЮЗ 4 200 м туман ?/? +9.3 +9.3 100 +6 +6 по сезону 1007.0 984.4
Ю 2 200 м туман ?/? +9.2 +9.2 100 +7 +7 по сезону 1006.6 984.1
ЮВ 3 50 м туман ?/? +8.9 +8.9 100 +6 +6 по сезону 1008.0 985.4 +8.8
В 2 500 м туман ?/? +9.4 +9.4 100 +8 +8 по сезону 1008.4 985.8 +8.7
ЮВ 7 50 км {туман} 3/3 600 м
[Sc]
+11.3 +10.9 97 +8 +12 по сезону 1007.4 985.1
Ю 9-11
{13}
50 км {туман} 6/6 600 м
[Sc]
+8.9 +7.8 93 +4 +5 очень
холодно
1006.4 983.9
ЮВ 8
{13}
500 м туман {ливн. осадки} ?/? +7.7 +7.5 99 +3 +3 холодно 1006.5 983.9 +12.0 0.3
ЮВ 6 200 м туман {ливн. осадки} ?/? +7.7 +7.7 100 +3 +3 прохладно 1008.2 985.4
ЮВ 5 200 м слаб. морось {туман} туман ?/? +8.8 +8.8 100 +5 +5 по сезону 1007.9 985.3
Местоположение метеостанции Владивосток (Приморский край, Россия): широта 43.12 долгота 131.90 высота над уровнем моря 188 м.
В архиве по умолчанию представлена погода в Владивостоке за последнюю неделю. Архивные данные за месяц целиком и за предыдущие месяцы, начиная с января 2011 года, Вы можете получить, выбрав интересующий диапазон дат из раскрывающегося списка и нажав кнопку "Найти!".
*Определитесь, кто Вы:
Внимание! Время в таблицах - всемирное. Для получения местного времени необходимо прибавить поправку, которая равна 10 ч.
Смотрите также архив погоды в соседних городах и на ближайших метеорологических станциях:
Партнеры нашего сайта:      
Пояснения к столбцам:
  • Ветер - указаны скорость ветра в м/с - средняя за 10 мин, порывы в срок и между сроками (в фигурных скобках) и направление, откуда дует ветер: С - северный,
  • СВ - северо-восточный, В - восточный, ЮВ - юго-восточный, Ю - южный, ЮЗ - юго-западный, З - западный, СЗ - северо-западный.
  • Видимость - горизонтальная дальность видимости в метрах или километрах. При видимости от 1 до 10 км при отсутствии осадков обычно наблюдается дымка, при ухудшении видимости до 1 км и менее - туман. В сухую погоду видимость может ухудшаться дымом, пылью или мглою.
  • Явления - указаны атмосферные явления, наблюдавшиеся в срок или в последний час перед сроком; фигурными скобками обозначены явления, наблюдавшиеся между сроками (за 1-3 часа до срока); квадратными скобками обозначены град или гололедные отложения с указанием их диаметра в мм.
  • Облачность - указаны через наклонную черту общая и нижняя облачность в баллах и высота нижней границы облаков в метрах; квадратными скобками обозначены формы облаков: Ci - перистые, Cs - перисто-слоистые, Cc - перисто-кучевые, Ac - высококучевые, As - высокослоистые, Sc - слоисто-кучевые, Ns - слоисто-дождевые, Cu - кучевые, Cb - кучево-дождевые. Подробнее классификацию облаков см. в Атласе облаков (PDF).
  • T - Температура воздуха - температура, измеренная на высоте 2 м над землей.
  • Td - Температура точки росы - температура, при понижении до которой содержащийся в воздухе водяной пар достигнет насыщения.
  • f - Относительная влажность воздуха - влажноcть воздуха, измеренная на высоте 2 м над землей.
  • Te - Эффективная температура - температура, которую ощущает одетый по сезону человек в тени. Характеристика душности погоды. При расчете учитывается влияние влажности воздуха и скорости ветра на теплоощущения человека.
  • Tes - Эффективная температура на солнце - температура, которую ощущает человек, с поправкой на солнечный нагрев. Характеристика знойности погоды. Зависит от высоты солнца над горизонтом, облачности и скорости ветра. Ночью, в пасмурную погоду, а также при ветре 12 м/с и более поправка равна нулю.
  • P - Атмосферное давление - приведенное к уровню моря атмосферное давление.
  • Po - Атмосферное давление - измеренное на уровне метеостанции атмосферное давление.
  • Tmin - Минимальная температура - минимум температуры воздуха на высоте 2 м над землей.
  • Tmax - Максимальная температура - максимум температуры воздуха на высоте 2 м над землей.
  • R - Количество осадков - Количество выпавших осадков за период времени, мм. При наведении курсора мыши на число - период времени, за который выпало указанное количество осадков.
  • R24 - Количество осадков - Количество выпавших осадков за 24 часа, мм.
  • S - Снежный покров - Высота снежного покрова, см. При наведении курсора мыши на число - состояние снежного покрова и степень покрытия местности в баллах.